Regional Weather Roundup
Issued by NWS Pendleton, OR

Home | Current Version | Previous Version | Text Only | Print | Product List | Glossary On
Versions: 1 2 3 4 5 6 7 8 9 10 11 12 13 14 15 16 17 18 19 20 21 22 23 24 25 26 27 28 29 30 31 32 33 34 35 36 37 38 39 40 41 42 43 44 45 46 47 48 49 50
000
ASUS46 KPDT 160725
RWRPDT
PENDLETON REGIONAL WEATHER ROUNDUP
NATIONAL WEATHER SERVICE PENDLETON OREGON
1200 AM PDT TUE SEP 16 2014

NOTE: FAIR INDICATES FEW OR NO CLOUDS BELOW 12,000 FEET WITH NO
SIGNIFICANT WEATHER AND/OR OBSTRUCTIONS TO VISIBILITY.

# INDICATES UNOFFICIAL STATION AND DATA

WAZ520-160810-
EAST SLOPES OF WASHINGTON CASCADES

CITY            SKY/WX      TMP DP  RH  WIND    PRES   REMARKS
#BUMPING DAM    N/A         53  N/A N/A N5      N/A
#CLE ELUM HS    N/A         54  40  59  CALM    29.89S
#CLE ELUM 2NW   N/A         52  38  59  SW1     N/A
#CLE ELUM LAKE  N/A         65  34  31  CALM    29.82S
#CLIFFDEL 2NW   N/A         57  37  47  CALM    N/A
#GLENWOOD       N/A         46  42  86  CALM    29.88R
#MANASTASH CYN  N/A         56  32  40  N1      29.94S
#NELSON         N/A         51  43  74  CALM    29.91R
#NELSON 3SW     N/A         55  38  53  CALM    30.06S
#NILE           N/A         51  38  61  CALM    29.18R
#RONALD 2NW     N/A         61  36  39  N2      29.84S
#TEANAWAY 4NE   N/A         57  38  49  CALM    N/A
#TROUT LAKE 1NE N/A         56  41  57  NW1     29.87S
$$

WAZ521-160810-
SIMCOE HIGHLANDS

CITY            SKY/WX      TMP DP  RH  WIND    PRES   REMARKS
#BICKLETON HS   N/A         62  26  25  N5      30.00S
#CENTERVILLE 4W N/A         64  33  31  N8      29.65S
#CENTERVILLE 1SWN/A         51  29  42  CALM    29.81R
#GOLDENDALE     N/A         60  34  37  E2      N/A
#GOLDENDALE 1NE N/A         57  26  30  N5      N/A
#GOLDENDALE 1S  N/A         57  35  43  CALM    29.87S
#GOLDENDALE 5WNWN/A         60  36  41  N1      29.83R
#GOODNOE HILLS  N/A         67  30  25  NW3     29.80F
#LYLE 6NE       N/A         67  31  26  CALM    29.79S
$$

WAZ026-160810-
KITTITAS VALLEY

CITY            SKY/WX      TMP DP  RH  WIND    PRES   REMARKS
ELLENSBURG AP   PTCLDY      58  39  49  S3      29.91S
#ELLENSBURG CWU N/A         55  41  59  CALM    29.82S
#ELLENSBURG 3NE N/A         57  41  55  CALM    29.91S
#ELLENSBURG     N/A         55  46  72  N1      N/A
#ELLENSBURG 1E  N/A         51  40  66  CALM    N/A
#KITTITAS 3S    N/A         46  42  86  CALM    29.86S
#THORP 6N       N/A         59  35  40  NE6     29.87F
$$

WAZ027-160810-
YAKIMA VALLEY

CITY            SKY/WX      TMP DP  RH  WIND    PRES   REMARKS
SUNNYSIDE AP    MOCLDY      48  46  93  CALM    29.86R
YAKIMA AIRPORT  PTCLDY      54  42  64  W6      29.88S
YAKIMA-VAGABOND PTCLDY      61  32  33  SW2     29.90S
#COWICHE 1N     N/A         63  39  41  NW2     30.06F
#DONALD 2NE     N/A         63  37  38  CALM    30.19S
#GRANDVIEW      N/A         56  47  72  CALM    29.85R
#MABTON         N/A         58  44  60  CALM    29.85R
#MOXEE 2E       N/A         56  34  43  NE2     29.85R
#NACHES 2SW     N/A         63  41  44  W1      29.90R
#OUTLOOK DOT    N/A         N/A N/A N/A NW2     N/A
#SELAH 8E       N/A         54  29  38  SE6     N/A
#TERRACE HTS    N/A         60  45  58  CALM    29.81S
#TOPPENISH      N/A         59  50  72  CALM    29.75S
#WAPATO 4NE     N/A         63  37  38  CALM    30.19S
#WEST VALLEY    N/A         59  39  47  CALM    29.83S
#W YAKIMA       N/A         66  40  38  NW2     29.83S
#WHITE SWAN 5E  N/A         57  39  51  NW1     29.83S
#WILEY CITY 3W  N/A         62  50  65  CALM    29.88R
$$

WAZ028-160810-
LOWER COLUMBIA BASIN...WASHINGTON

CITY            SKY/WX      TMP DP  RH  WIND    PRES   REMARKS
HANFORD         MOCLDY      71  25  18  W6      29.82S
PASCO           PTCLDY      55  49  80  N3      29.84R
PROSSER AWOS    N/A         54  48  80  NW1     29.88S
RICHLAND AWOS   PTCLDY      61  46  58  CALM    29.83S
#BASIN CITY 5SW N/A         59  46  62  CALM    29.83S
#BENTON CITY    N/A         59  47  64  CALM    29.73R
#CONNELL 5N     N/A         62  41  46  NW5     29.81S
#CONNELL 5NW    N/A         63  44  50  N3      29.78S
#ELTOPIA        N/A         59  46  62  CALM    29.79R
#ELTOPIA 6NW    N/A         63  45  52  N5      28.81S
#KENNEWICK 3S   N/A         69  38  32  CALM    29.82S
#PASCO-BROADMOORN/A         61  47  60  CALM    29.72R
#PATERSON       N/A         64  43  46  CALM    29.81R
#PROSSER        N/A         69  35  28  SW3     29.83R
#SAGEMOOR 2W    N/A         60  48  64  CALM    29.67S
#TOUCHET 2S     N/A         54  44  69  NE1     29.81R
#WEST PASCO     N/A         60  45  58  CALM    29.82R
$$

WAZ029-160810-
FOOTHILLS OF THE BLUES...WASHINGTON

CITY            SKY/WX      TMP DP  RH  WIND    PRES   REMARKS
WALLA WALLA AP  PTCLDY      68  38  33  S6      29.87R
#DAYTON SCHOOL  N/A         57  34  42  CALM    29.88R
#LOWDEN 2SE     N/A         55  45  69  CALM    29.80S
#PLEASANT VIEW 1N/A         65  41  41  S5      29.84R
#PRESCOTT       N/A         54  41  61  CALM    29.81R
#SUDBURY        N/A         55  N/A N/A CALM    N/A
#WHITMAN COLLEGEN/A         68  40  36  SE3     29.86R
#WAITSBURG 8N   N/A         58  29  33  CALM    29.79R
#WALLA WALLA 5E N/A         64  36  35  W7      N/A
#WALLA WALLA U  N/A         64  43  46  CALM    29.83R
#WHITMAN MISSIONN/A         56  48  74  CALM    29.84R
$$

WAZ030-160810-
BLUE MOUNTAINS...WASHINGTON

CITY            SKY/WX      TMP DP  RH  WIND    PRES   REMARKS
$$

ORZ009-041-WAZ024-160810-
COLUMBIA RIVER GORGE

CITY            SKY/WX      TMP DP  RH  WIND    PRES   REMARKS
HOOD RIVER AP   MOCLDY      61  45  56  S3      29.86S
THE DALLES AP   MOCLDY      63  34  34  CALM    29.84R
#ARLINGTON AIRPON/A         69  37  31  W3      N/A
#ARLINGTON HS   N/A         62  34  35  CALM    29.73R
#MARYHILL 2W    N/A         67  38  34  CALM    N/A
#MOSIER 1S      N/A         64  26  23  CALM    29.88R
#MURDOCK        N/A         68  42  39  NW5     29.85R
#RUFUS DOT      N/A         65  39  38  S5      N/A

$$

ORZ510-160810-
NORTH CENTRAL OREGON

CITY            SKY/WX      TMP DP  RH  WIND    PRES   REMARKS
#CHENOWITH 1W   N/A         70  28  21  NW3     N/A
#COW CYN RST AREN/A         65  29  26  NW6     N/A
#DUFUR 9E       N/A         69  33  26  CALM    29.85S
#GRASS VALLEY   N/A         49  30  48  SE1     N/A
#GRASS VALLEY 1SN/A         62  35  36  CALM    29.83F
#KENT DOT       N/A         60  27  28  S1      N/A
#MAUPIN SCHOOL  N/A         64  33  31  CALM    28.76R
#MORO SCHOOL    N/A         54  37  52  CALM    29.91S
#SHANIKO 5WSW   N/A         63  29  28  N7      N/A
#SHANIKO 4NW    N/A         64  29  27  NE6     29.96S
#TYGH VALLEY 2NEN/A         59  35  40  NE1     29.83S
#WAPANITIA AIRPON/A         59  35  40  CALM    29.85S
#WASCO DOT      N/A         53  34  48  CALM    N/A
#WASCO AIRPORT  N/A         65  31  28  CALM    N/A
#WASCO 5NE      N/A         55  32  41  CALM    29.83S
$$

ORZ511-160810-
CENTRAL OREGON

CITY            SKY/WX      TMP DP  RH  WIND    PRES   REMARKS
BEND AIRPORT    CLEAR       59  32  36  SW6     29.98S
MADRAS AIRPORT  CLEAR       57  32  38  CALM    29.93S
REDMOND AIRPORT CLEAR       59  29  32  W5      29.94S
#BEND 6E        N/A         61  28  28  CALM    29.72F
#BEND 1SW       N/A         53  33  46  SW1     N/A
#BEND-AWBREY    N/A         61  33  35  CALM    29.82F
#BEND-KIM LN    N/A         60  36  41  SW1     29.94F
#CROOKED RVR RANN/A         66  34  30  SW18    29.83S
#CULVER         N/A         58  36  44  CALM    29.89S
#LAKE BILLY CHINN/A         63  -5   6  CALM    29.96S
#POWELL BUTTE 3EN/A         64  31  29  SW3     N/A
#POWELL BUTTE   N/A         64  33  31  W5      29.61R
#PRINEVILLE 3N  N/A         57  39  51  CALM    29.79R
#WARM SPRINGS   N/A         68  36  31  CALM    29.85F


ORZ509-160810-
EAST SLOPES OF OREGON CASCADES

CITY            SKY/WX      TMP DP  RH  WIND    PRES   REMARKS
#BLUE BOX PASS  N/A         62   8  12  CALM    N/A
#BLACK BUTTE RNCN/A         52  37  56  CALM    29.86F
#CAMP SHERMAN   N/A         47  34  60  CALM    29.85S
#LA PINE DOT    N/A         52  30  43  CALM    N/A
#LA PINE 4NW    N/A         54  33  45  CALM    29.87S
#LAVA BUTTE DOT N/A         52  31  44  N1      N/A
#SISTERS AIRPOR N/A         51  39  63  CALM    29.95F
#SISTERS ODOT   N/A         49  N/A N/A CALM    N/A
#SISTERS 1NW    N/A         53  32  45  NE6     N/A
#SISTERS 3N     N/A         49  32  52  CALM    N/A
#SUNRIVER       N/A         51  37  59  CALM    29.75S
#SUNRIVER AP    N/A         51  36  56  CALM    29.82S
#SUTTLE LK DOT  N/A         49  37  63  SE13    N/A    WCI 44
#TUMALO 3W      N/A         64  33  31  SW5     29.70S
#WANOGA BUTTE D N/A         60  32  35  NE2     N/A

$$

ORZ044-160810-
LOWER COLUMBIA BASIN...OREGON

CITY            SKY/WX      TMP DP  RH  WIND    PRES   REMARKS
HERMISTON       PTCLDY      57  40  53  SE7     29.84S
#BOARDMAN SCHOOLN/A         70  46  42  CALM    29.82S
#BOARDMAN 3W    N/A         52  44  74  SW1     29.56R
#BOARDMAN 8SW   N/A         62  41  46  CALM    29.82S
#ECHO 8SW       N/A         59  36  42  SW1     29.82R
#IONE SCHOOL    N/A         57  35  43  CALM    29.86R
#IRRIGON 4NW    N/A         55  51  86  SE2     N/A
#UMATILLA       N/A         59  42  53  E2      29.81R
$$

ORZ507-160810-
NORTHERN FOOTHILLS OF THE BLUES

CITY            SKY/WX      TMP DP  RH  WIND    PRES   REMARKS
PENDLETON AIRPT PTCLDY      58  32  37  N5      29.86F
#ADAMS 3WNW     N/A         58  34  40  CALM    29.83S
#ATHENA         N/A         55  38  53  CALM    29.87R
#HELIX SCHOOL   N/A         58  34  40  N1      29.84R
#HELIX 3N       N/A         62  33  34  CALM    29.85F
#HOLDMAN 5SE    N/A         61  35  38  CALM    29.88S
#HOLDMAN 6E     N/A         64  34  33  CALM    29.64S
#M-FREEWATER 5SEN/A         60  43  53  CALM    29.88R
#PENDLETON DNTN N/A         60  34  37  CALM    29.88S
#PDT AQUATIC CTRN/A         60  33  36  E1      29.88S
#PDT SUNRIDGE   N/A         58  36  44  E2      29.88S
#PENDLETON 7NW  N/A         60  39  46  CALM    25.91R
#PILOT ROCK     N/A         62  33  34  CALM    29.91F
#TUTUILLA       N/A         57  38  49  CALM    29.86R
#UMAPINE 2E     N/A         57  47  69  CALM    29.82R
#WESTON SCHOOL  N/A         63  32  31  CALM    29.85S

$$

ORZ508-160810-
SOUTHERN FOOTHILLS OF THE BLUES

CITY            SKY/WX      TMP DP  RH  WIND    PRES   REMARKS
#AJAX           N/A         65  27  24  E2      29.85S
#CONDON SCHOOL  N/A         61  36  39  CALM    29.89F
#CONDON 5W      N/A         66  26  22  E3      29.91S
#FOSSIL SCHOOL  N/A         55  35  47  E1      29.90F
#HEPPNER EOC    N/A         59  36  42  E2      29.78S
#HEPPNER 4NE    N/A         65  33  30  E2      29.81S
#LEXINGTON 2SE  N/A         57  39  51  CALM    29.85F
#MIKKALO        N/A         57  27  31  SE2     29.88S
#OLEX 4N        N/A         60  35  39  S6      29.85S
#RUGGS 5NE      N/A         60  34  37  SE1     30.07S
#RUGGS 2SW      N/A         62  34  35  SE5     29.87F

$$

ORZ502-503-160810-
BLUE MOUNTAINS

CITY            SKY/WX      TMP DP  RH  WIND    PRES   REMARKS
MEACHAM         PTCLDY      49  36  61  CALM    29.98F
#BATTLE MTN DOT N/A         63  41  44  S7      N/A
#HARDMAN 10S    N/A         63  33  32  CALM    30.04F
#HEPPNER 15SE   N/A         61  37  41  CALM    29.89F
#LADD CYN SMT   N/A         60  31  33  E3      N/A
#LADD CREEK ODOTN/A         61  39  44  SW3     N/A
#N POWDER DOT   N/A         55  45  69  NE2     N/A
#PIKES PEAK     N/A         69  35  28  S14     27.99S
#TOLLGATE       N/A         63  32  31  CALM    29.99S
#TROY SCHOOL    N/A         58  44  60  CALM    29.71R
#UKIAH          N/A         52  34  50  CALM    29.91F
#WESTON 4E      N/A         66  37  34  CALM    29.75S
$$

ORZ505-160810-
JOHN DAY BASIN

CITY            SKY/WX      TMP DP  RH  WIND    PRES   REMARKS
JOHN DAY        PTCLDY      67  49  52  SE7     29.99R
#JOHN DAY KJDY  N/A         61  55  81  CALM    30.06F
#MONUMENT HS    N/A         63  38  39  CALM    29.90S
#MT. VERNON 5SE N/A         68  44  42  E2      29.96R
#WINLOCK        N/A         62  31  31  CALM    30.02S
$$

ORZ506-160810-
OCHOCO AND JOHN DAY HIGHLANDS

CITY            SKY/WX      TMP DP  RH  WIND    PRES   REMARKS
#BUCK CREEK DOT N/A         69  50  51  E2      N/A
#HORSE RIDGE DO N/A         50  29  44  SW1     N/A
#KEYES SMT DOT  N/A         63  31  30  E5      N/A
#PAULINA SCHOOL N/A         60  39  46  N1      29.96R
#PINE MTN OBS   N/A         63  31  30  SE9     N/A
#PRAIRIE CITY   N/A         56  46  69  CALM    29.95R
#SENECA 9NW     N/A         53  45  74  CALM    29.85R
$$

ORZ049-160810-
GRANDE RONDE VALLEY

CITY            SKY/WX      TMP DP  RH  WIND    PRES   REMARKS
LA GRANDE       MOCLDY      57  30  35  SE3     29.93S
#COVE           N/A         58  40  51  E1      29.87R
#COVE SCHOOL    N/A         59  38  45  CALM    29.93R
#COVE 6NW       N/A         55  40  57  CALM    29.91R
#ELGIN 3N       N/A         57  34  42  CALM    29.68S
#ELGIN 1E       N/A         56  37  49  CALM    N/A
#IMBLER SCHOOL  N/A         59  38  45  N1      29.90S
#LADD CYN DOT   N/A         68  39  35  S7      N/A
#LA GRANDE ELEM N/A         62  37  39  CALM    29.92S
#UNION 1S       N/A         59  39  47  CALM    29.77R
$$

ORZ050-160810-
WALLOWA COUNTY

CITY            SKY/WX      TMP DP  RH  WIND    PRES   REMARKS
JOSEPH AIRPORT  MOCLDY      55  36  49  S5      30.02F
#ENTERPRISE AP  N/A         60  28  29  NE1     29.94S
#ENTERPRISE HS  N/A         52  40  63  CALM    30.01R
#IMNAHA SCHOOL  N/A         61  36  39  CALM    29.87R
#IMNAHA 10S     N/A         66  34  30  SW6     29.95R
#JOSEPH 3N      N/A         50  37  61  CALM    30.02F
#JOSEPH 3W      N/A         66  30  26  SW1     29.89S
#LOSTINE        N/A         55  38  53  CALM    29.68R
#MT HOWARD 8000 N/A         59  29  32  SE12    30.28F
#PROMISE 1S     N/A         60  36  41  CALM    29.90F
#SHEEP RDG 7000 N/A         64  27  24  CALM    29.79S
#WALLOWA SCHOOL N/A         52  43  71  CALM    30.78S



$$



USA.gov is the U.S. government's official web portal to all federal, state and local government web resources and services.